Погода в Ахангаме

Шри-Ланка     6°00′08″N   80°22′10″E
темп.,
°C
ветер,
м/с
пор.,
м/с
влажн.,
%
обл.,
%
осадки,
мм/ч
давл.,
гПа
погр.,
м
1 марта, пн
пн123:30+25в357922 0.0 1012399
02:30+24в477837 0.0 1010289
05:30+24в577820 0.0 1011292
08:30+26в576810 0.0 1013380
11:30+31ююв225212 0.0 1014876
14:30+28ююв33625 0.0 1010507
17:30+27юв32669 0.1 1011485
20:30+26вюв34732 0.1 1013369
2 марта, вт
вт223:30+25всв22742 0.1 1015258
02:30+24всв22810 0.0 1011150
05:30+23всв33870 0.0 1012134
08:30+26в46670 0.0 1013331
11:30+30вюв34478 0.0 1013787
14:30+30ююв66580 0.0 10091031
17:30+28юв68700 0.0 1010729
20:30+26всв47730 0.0 1012460
3 марта, ср
ср323:30+24всв59740 0.0 1012420
02:30+23всв58770 0.0 1010293
05:30+22всв46800 0.0 1010214
08:30+25всв34690 0.0 1012301
11:30+30ююз23530 0.0 1011873
14:30+28юз44610 0.0 1008751
17:30+27ю34669 0.0 1009904
20:30+26в587684 0.2 1011688
4 марта, чт
чт423:30+24всв697546 0.3 1011485
02:30+24всв69780 0.0 1009432
05:30+24всв610770 0.0 1009488
08:30+27всв68640 0.0 1012741
11:30+30вюв46560 0.0 1011995
14:30+30юв786010 0.0 1008981
17:30+29вюв68675 0.0 1009763
20:30+27св467552 0.1 1011413
5 марта, пт
пт523:30+25всв357547 0.3 1012437
02:30+24св347932 0.0 1010213
05:30+24ссв237830 0.0 1011152
08:30+27всв2265100 0.0 1013252
11:30+30ююв3456100 0.0 1013843
14:30+29ююв5663100 0.0 1009545
17:30+28ююв567478 0.0 1010603
20:30+26в35810 0.0 1012501